Pinedale, WY

6:02 AM MDT on April 24, 2017 (GMT -0600)
Wenz

Weather History for KPNA - July, 2013

Change the Weather History Date:

Friday, July 5, 2013

  Actual Average (KBPI) Record (KBPI)
Temperature  
Mean Temperature 64 °F -  
Max Temperature 78 °F 78 °F 90 °F (2001)
Min Temperature 51 °F 39 °F 32 °F (2010)
Growing Degree Days 14 (Base 50)    
Moisture  
Dew Point 46 °F    
Average Humidity 61    
Maximum Humidity 100    
Minimum Humidity 22    
Precipitation  
Precipitation 0.00 in - - ()
Sea Level Pressure  
Sea Level Pressure 30.10 in    
Wind  
Wind Speed 10 mph (NW)    
Max Wind Speed 37 mph    
Max Gust Speed 46 mph    
Visibility 10 miles    
Events Rain , Thunderstorm    
Averages and records for this station are not official NWS values.
T = Trace of Precipitation, MM = Missing Value Source: NWS Daily Summary

Daily Weather History Graph

Daily Weather History Graph

Search for Another Location

Airport or City:

Trip Planner

Search our weather history database for the weather conditions in past years. The results will help you decide how hot, cold, wet, or windy it might be!

Date:

Astronomy

Jul. 05, 2013 Rise Set
Actual Time 5:47 AM MDT 9:00 PM MDT
Civil Twilight 5:12 AM MDT 9:35 PM MDT
Nautical Twilight 4:27 AM MDT 10:19 PM MDT
Astronomical Twilight 3:33 AM MDT 11:13 PM MDT
Moon 3:50 AM MDT (7/5) 6:56 PM MDT (7/5)
Length of Visible Light 16h 22m
Length of Day
15h 13m
Waning Crescent, 6% of the Moon is Illuminated
Jul 5
Waning Crescent
Jul 8
New
Jul 15
First Quarter
Jul 22
Full
Jul 29
Last Quarter

Hourly Weather History & Observations

Time (MDT) Temp. Dew Point Humidity Pressure Visibility Wind Dir Wind Speed Gust Speed Precip Events Conditions
12:15 AM 55.4 °F 53.6 °F 94% 30.11 in 10.0 mi SE 18.4 mph - N/A Rain Rain
12:35 AM 57.2 °F 51.8 °F 82% 30.14 in 10.0 mi NE 3.5 mph - N/A   Light Drizzle
12:55 AM 57.2 °F 53.6 °F 88% 30.14 in 10.0 mi North 4.6 mph - N/A Rain Light Rain
1:15 AM 55.4 °F 53.6 °F 94% 30.13 in 10.0 mi West 4.6 mph - N/A   Scattered Clouds
1:35 AM 53.6 °F 51.8 °F 94% 30.13 in 10.0 mi West 6.9 mph - N/A   Mostly Cloudy
1:55 AM 53.6 °F 51.8 °F 94% 30.13 in 10.0 mi West 4.6 mph - N/A   Scattered Clouds
2:15 AM 53.6 °F 51.8 °F 94% 30.13 in 10.0 mi WNW 5.8 mph - N/A Thunderstorm Thunderstorm
2:35 AM 53.6 °F 51.8 °F 94% 30.15 in 10.0 mi WNW 16.1 mph - N/A Thunderstorm Mostly Cloudy
2:55 AM 55.4 °F 53.6 °F 94% 30.14 in 10.0 mi NNW 12.7 mph - N/A Rain Rain
3:15 AM 55.4 °F 51.8 °F 88% 30.13 in 7.0 mi NNE 9.2 mph - N/A Rain Light Rain
3:35 AM 55.4 °F 53.6 °F 94% 30.13 in 10.0 mi NNE 3.5 mph - N/A   Scattered Clouds
3:55 AM 55.4 °F 53.6 °F 94% 30.13 in 10.0 mi NNW 3.5 mph - N/A   Mostly Cloudy
4:15 AM 55.4 °F 51.8 °F 88% 30.11 in 10.0 mi Calm Calm - N/A   Mostly Cloudy
4:35 AM 53.6 °F 51.8 °F 94% 30.11 in 10.0 mi West 3.5 mph - N/A   Scattered Clouds
4:55 AM 53.6 °F 51.8 °F 94% 30.11 in 10.0 mi West 6.9 mph - N/A   Scattered Clouds
5:15 AM 51.8 °F 51.8 °F 100% 30.11 in 10.0 mi West 5.8 mph - N/A   Clear
5:35 AM 51.8 °F 51.8 °F 100% 30.12 in 10.0 mi NW 6.9 mph - N/A   Clear
5:55 AM 51.8 °F 51.8 °F 100% 30.11 in 10.0 mi NW 6.9 mph - N/A   Clear
6:15 AM 51.8 °F 51.8 °F 100% 30.12 in 10.0 mi Calm Calm - N/A   Clear
6:35 AM 51.8 °F 51.8 °F 100% 30.11 in 10.0 mi West 4.6 mph - N/A   Clear
6:55 AM 53.6 °F 53.6 °F 100% 30.11 in 10.0 mi West 5.8 mph - N/A   Mostly Cloudy
7:15 AM 53.6 °F 53.6 °F 100% 30.11 in 10.0 mi Calm Calm - N/A   Scattered Clouds
7:35 AM 55.4 °F 53.6 °F 94% 30.11 in 10.0 mi West 4.6 mph - N/A   Clear
7:55 AM 57.2 °F 53.6 °F 88% 30.11 in 10.0 mi Calm Calm - N/A   Clear
8:15 AM 59.0 °F 51.8 °F 77% 30.11 in 10.0 mi Calm Calm - N/A   Clear
8:35 AM 60.8 °F 53.6 °F 77% 30.13 in 10.0 mi NW 4.6 mph - N/A   Clear
8:55 AM 62.6 °F 51.8 °F 68% 30.13 in 10.0 mi NW 5.8 mph - N/A   Clear
9:15 AM 62.6 °F 51.8 °F 68% 30.13 in 10.0 mi NW 4.6 mph - N/A   Clear
9:35 AM 64.4 °F 51.8 °F 64% 30.11 in 10.0 mi WNW 5.8 mph - N/A   Clear
9:55 AM 64.4 °F 51.8 °F 64% 30.11 in 10.0 mi WNW 5.8 mph - N/A   Scattered Clouds
10:15 AM 68.0 °F 50.0 °F 52% 30.11 in 10.0 mi NW 5.8 mph - N/A   Scattered Clouds
10:35 AM 68.0 °F 50.0 °F 52% 30.11 in 10.0 mi NNW 10.4 mph - N/A   Clear
10:55 AM 69.8 °F 46.4 °F 43% 30.11 in 10.0 mi WNW 11.5 mph 17.3 mph N/A   Clear
11:15 AM 69.8 °F 44.6 °F 40% 30.11 in 10.0 mi WNW 13.8 mph 17.3 mph N/A   Clear
11:35 AM 69.8 °F 46.4 °F 43% 30.11 in 10.0 mi NW 11.5 mph - N/A   Mostly Cloudy
11:55 AM 71.6 °F 46.4 °F 41% 30.11 in 10.0 mi NNW 9.2 mph - N/A   Mostly Cloudy
12:15 PM 71.6 °F 46.4 °F 41% 30.11 in 10.0 mi NNW 12.7 mph 19.6 mph N/A   Scattered Clouds
12:35 PM 71.6 °F 46.4 °F 41% 30.11 in 10.0 mi WNW 10.4 mph 16.1 mph N/A   Mostly Cloudy
12:55 PM 71.6 °F 46.4 °F 41% 30.11 in 10.0 mi NNW 6.9 mph 27.6 mph N/A   Scattered Clouds
1:15 PM 73.4 °F 44.6 °F 36% 30.09 in 10.0 mi NNW 12.7 mph - N/A   Scattered Clouds
1:35 PM 71.6 °F 44.6 °F 38% 30.09 in 10.0 mi NNW 6.9 mph - N/A   Scattered Clouds
1:55 PM 73.4 °F 44.6 °F 36% 30.09 in 10.0 mi NW 4.6 mph - N/A   Scattered Clouds
2:15 PM 75.2 °F 42.8 °F 31% 30.08 in 10.0 mi West 16.1 mph 25.3 mph N/A   Scattered Clouds
2:35 PM 77.0 °F 42.8 °F 29% 30.07 in 10.0 mi NW 13.8 mph 19.6 mph N/A   Scattered Clouds
2:55 PM 75.2 °F 41.0 °F 29% 30.06 in 10.0 mi WNW 13.8 mph 18.4 mph N/A   Clear
3:15 PM 77.0 °F 41.0 °F 28% 30.06 in 10.0 mi WNW 10.4 mph 20.7 mph N/A   Clear
3:35 PM 77.0 °F 41.0 °F 28% 30.05 in 10.0 mi WNW 12.7 mph 19.6 mph N/A   Clear
3:55 PM 77.0 °F 41.0 °F 28% 30.05 in 10.0 mi NW 16.1 mph 19.6 mph N/A   Scattered Clouds
4:15 PM 78.8 °F 41.0 °F 26% 30.03 in 10.0 mi West 12.7 mph 20.7 mph N/A   Scattered Clouds
4:35 PM 78.8 °F 37.4 °F 23% 30.03 in 10.0 mi West 16.1 mph 19.6 mph N/A   Scattered Clouds
4:55 PM 77.0 °F 35.6 °F 22% 30.03 in 10.0 mi WNW 12.7 mph 25.3 mph N/A   Mostly Cloudy
5:15 PM 77.0 °F 37.4 °F 24% 30.01 in 10.0 mi WNW 16.1 mph 20.7 mph N/A   Mostly Cloudy
5:35 PM 73.4 °F 39.2 °F 29% 30.02 in 10.0 mi NW 24.2 mph 42.6 mph N/A   Mostly Cloudy
5:55 PM 73.4 °F 37.4 °F 27% 30.03 in 10.0 mi NW 21.9 mph 34.5 mph N/A   Scattered Clouds
6:15 PM 71.6 °F 39.2 °F 31% 30.03 in 10.0 mi NNW 16.1 mph 20.7 mph N/A   Clear
6:35 PM 73.4 °F 37.4 °F 27% 30.02 in 10.0 mi NNW 15.0 mph - N/A   Clear
6:55 PM 71.6 °F 39.2 °F 31% 30.03 in 10.0 mi NW 13.8 mph - N/A   Clear
7:15 PM 71.6 °F 39.2 °F 31% 30.03 in 10.0 mi NW 15.0 mph - N/A   Clear
7:35 PM 69.8 °F 39.2 °F 33% 30.04 in 10.0 mi NW 11.5 mph - N/A   Clear
7:55 PM 69.8 °F 41.0 °F 35% 30.05 in 10.0 mi NW 12.7 mph - N/A   Clear
8:15 PM 69.8 °F 41.0 °F 35% 30.09 in 10.0 mi West 29.9 mph 36.8 mph N/A   Scattered Clouds
8:35 PM 59.0 °F 42.8 °F 55% 30.09 in 10.0 mi West 31.1 mph 46.0 mph N/A   Mostly Cloudy
8:55 PM 57.2 °F 41.0 °F 55% 30.09 in 10.0 mi West 36.8 mph 46.0 mph N/A   Mostly Cloudy
9:15 PM 57.2 °F 41.0 °F 55% 30.09 in 10.0 mi WNW 28.8 mph 40.3 mph N/A   Mostly Cloudy
9:35 PM 59.0 °F 39.2 °F 48% 30.10 in 10.0 mi WNW 24.2 mph 38.0 mph N/A   Overcast
9:55 PM 57.2 °F 41.0 °F 55% 30.13 in 10.0 mi NW 19.6 mph 27.6 mph N/A   Overcast
10:15 PM 55.4 °F 41.0 °F 58% 30.11 in 10.0 mi North 12.7 mph - N/A   Overcast
10:35 PM 55.4 °F 41.0 °F 58% 30.13 in 10.0 mi Calm Calm - N/A   Overcast
10:55 PM 55.4 °F 42.8 °F 63% 30.12 in 10.0 mi SW 3.5 mph - N/A   Scattered Clouds
11:15 PM 55.4 °F 42.8 °F 63% 30.13 in 10.0 mi South 3.5 mph - N/A   Clear
11:35 PM 53.6 °F 42.8 °F 67% 30.11 in 10.0 mi SE 4.6 mph - N/A   Clear
11:55 PM 55.4 °F 42.8 °F 63% 30.11 in 10.0 mi NNE 4.6 mph - N/A   Clear